Location: Hackbridge
(51.3833°N, 0.1500°W)
Time: 07:22:49
(UTC+00:00)

Cosmos 292 Rocket - Pass Details

Date: 13 October 2019
Orbit: 673 x 694 km, 74.0° (Epoch: 12 November)

Event Time Altitude Azimuth Distance (km) Brightness Sun altitude
Rises 19:01:53 0° 187° (S) 3,014 7.1 -17.8°
Reaches altitude 10° 19:04:13 10° 182° (S) 2,103 6.2 -18.2°
Maximum altitude 19:08:46 50° 108° (ESE) 858 3.8 -18.9°
Drops below altitude 10° 19:13:22 10° 33° (NNE) 2,119 6.1 -19.6°
Sets 19:15:44 0° 29° (NNE) 3,039 6.9 -19.9°
